| time (UTC) | temp F | wind direction | speed knots | gust knots | rain 1hr in | rain 24hr in | rain mn in | humidity % | barometer mb |
| 20260906005527 | 47 | 119 | 3.5 | 5.2 | 0.00 | 0.17 | 0.00 | 88 | 1024.1 |
| 20260906004522 | 48 | 135 | 2.6 | 3.5 | 0.00 | 0.17 | 0.00 | 87 | 1024.1 |
| 20260906003527 | 48 | 121 | 2.6 | 3.5 | 0.00 | 0.17 | 0.00 | 88 | 1024.1 |
| 20260906002532 | 48 | 121 | 2.6 | 3.5 | 0.00 | 0.17 | 0.00 | 87 | 1024.2 |
| 20260906001526 | 48 | 124 | 1.7 | 3.5 | 0.00 | 0.17 | 0.00 | 87 | 1023.9 |
| 20260906000521 | 48 | 120 | 2.6 | 6.1 | 0.00 | 0.17 | 0.00 | 87 | 1023.9 |
| 20260905235516 | 49 | 107 | 2.6 | 3.5 | 0.00 | 0.17 | 0.00 | 87 | 1023.9 |
| 20260905234531 | 49 | 119 | 2.6 | 3.5 | 0.00 | 0.17 | 0.00 | 86 | 1023.7 |
| 20260905233525 | 49 | 106 | 0.9 | 1.7 | 0.00 | 0.17 | 0.00 | 87 | 1023.8 |
| 20260905232519 | 48 | 130 | 1.7 | 3.5 | 0.00 | 0.17 | 0.00 | 86 | 1023.6 |
| 20260905231534 | 48 | 120 | 1.7 | 2.6 | 0.00 | 0.17 | 0.00 | 84 | 1023.6 |
| 20260905230551 | 49 | 129 | 1.7 | 2.6 | 0.00 | 0.17 | 0.00 | 84 | 1023.5 |
| 20260905225523 | 49 | 108 | 0.9 | 1.7 | 0.00 | 0.17 | 0.00 | 84 | 1023.4 |
| 20260905224537 | 49 | 105 | 2.6 | 3.5 | 0.00 | 0.17 | 0.00 | 84 | 1023.4 |
| 20260905223530 | 49 | 130 | 2.6 | 5.2 | 0.00 | 0.17 | 0.00 | 83 | 1023.4 |
| 20260905222544 | 50 | 130 | 1.7 | 2.6 | 0.00 | 0.17 | 0.00 | 82 | 1023.3 |
| 20260905221518 | 50 | 115 | 0.9 | 1.7 | 0.00 | 0.17 | 0.00 | 81 | 1023.3 |
| 20260905220533 | 50 | 123 | 1.7 | 2.6 | 0.00 | 0.17 | 0.00 | 81 | 1023.1 |
| 20260905215527 | 51 | 125 | 0.9 | 1.7 | 0.00 | 0.17 | 0.17 | 79 | 1023.2 |
| 20260905214641 | 51 | 130 | 2.6 | 2.6 | 0.00 | 0.17 | 0.17 | 78 | 1023.1 |
| 20260905213516 | 52 | 107 | 0.9 | 1.7 | 0.00 | 0.17 | 0.17 | 78 | 1023.1 |
| 20260905212530 | 52 | 334 | 0.9 | 1.7 | 0.00 | 0.17 | 0.17 | 78 | 1023.0 |
| 20260905211525 | 53 | 179 | 0.9 | 1.7 | 0.00 | 0.17 | 0.17 | 75 | 1022.9 |
| 20260905210519 | 53 | 160 | 1.7 | 2.6 | 0.00 | 0.17 | 0.17 | 71 | 1022.8 |
| 20260905205533 | 55 | 168 | 1.7 | 2.6 | 0.00 | 0.17 | 0.17 | 68 | 1022.7 |
| 20260905204528 | 57 | 208 | 0.9 | 1.7 | 0.00 | 0.17 | 0.17 | 65 | 1022.7 |
| 20260905203522 | 58 | 267 | 0.0 | 0.9 | 0.00 | 0.17 | 0.17 | 63 | 1022.6 |
| 20260905202517 | 59 | 284 | 1.7 | 2.6 | 0.00 | 0.17 | 0.17 | 61 | 1022.3 |
| 20260905201532 | 59 | 263 | 0.9 | 1.7 | 0.00 | 0.17 | 0.17 | 59 | 1022.2 |
| 20260905200547 | 60 | 265 | 2.6 | 3.5 | 0.00 | 0.17 | 0.17 | 59 | 1022.2 |
| 20260905195521 | 60 | 263 | 2.6 | 3.5 | 0.00 | 0.17 | 0.17 | 58 | 1022.1 |
| 20260905194535 | 61 | 264 | 3.5 | 6.1 | 0.00 | 0.17 | 0.17 | 57 | 1021.9 |
| 20260905193531 | 61 | 255 | 3.5 | 6.1 | 0.00 | 0.17 | 0.17 | 56 | 1021.8 |
| 20260905192525 | 62 | 265 | 4.3 | 7.0 | 0.00 | 0.17 | 0.17 | 55 | 1021.7 |
| 20260905191540 | 62 | 263 | 4.3 | 7.8 | 0.00 | 0.17 | 0.17 | 55 | 1021.7 |
| 20260905190555 | 63 | 265 | 4.3 | 7.8 | 0.00 | 0.17 | 0.17 | 53 | 1021.7 |
| 20260905185529 | 63 | 264 | 4.3 | 7.0 | 0.00 | 0.17 | 0.17 | 53 | 1021.5 |
| 20260905184523 | 63 | 271 | 4.3 | 7.8 | 0.00 | 0.17 | 0.17 | 53 | 1021.4 |
| 20260905183517 | 64 | 268 | 4.3 | 7.0 | 0.00 | 0.17 | 0.17 | 52 | 1021.2 |
| 20260905182552 | 65 | 264 | 6.1 | 8.7 | 0.00 | 0.17 | 0.17 | 50 | 1021.1 |
| 20260905181526 | 65 | 267 | 7.0 | 16.5 | 0.00 | 0.17 | 0.17 | 51 | 1021.0 |
| 20260905180521 | 65 | 269 | 5.2 | 11.3 | 0.00 | 0.17 | 0.17 | 53 | 1020.9 |
| 20260905175535 | 66 | 267 | 3.5 | 7.0 | 0.00 | 0.17 | 0.17 | 51 | 1020.6 |
| 20260905174530 | 67 | 281 | 6.1 | 9.6 | 0.00 | 0.17 | 0.17 | 50 | 1020.5 |
| 20260905173524 | 68 | 276 | 7.0 | 11.3 | 0.00 | 0.17 | 0.17 | 48 | 1020.3 |
| 20260905172519 | 69 | 285 | 7.0 | 13.9 | 0.00 | 0.17 | 0.17 | 47 | 1019.9 |
| 20260905171534 | 70 | 277 | 10.4 | 22.6 | 0.00 | 0.17 | 0.17 | 46 | 1019.9 |
| 20260905170529 | 70 | 282 | 8.7 | 18.2 | 0.00 | 0.17 | 0.17 | 46 | 1019.8 |
| 20260905165524 | 70 | 282 | 8.7 | 18.2 | 0.00 | 0.17 | 0.17 | 43 | 1019.5 |
| 20260905164538 | 71 | 261 | 11.3 | 23.5 | 0.00 | 0.17 | 0.17 | 43 | 1019.2 |
| 20260905163533 | 71 | 273 | 10.4 | 21.7 | 0.00 | 0.17 | 0.17 | 43 | 1019.2 |
| 20260905162528 | 72 | 267 | 13.0 | 25.2 | 0.00 | 0.17 | 0.17 | 41 | 1019.0 |
| 20260905161523 | 72 | 263 | 19.1 | 33.0 | 0.00 | 0.17 | 0.17 | 42 | 1018.7 |
| 20260905160519 | 72 | 270 | 13.0 | 26.9 | 0.00 | 0.17 | 0.17 | 42 | 1018.7 |
| 20260905155533 | 72 | 278 | 12.2 | 20.9 | 0.00 | 0.17 | 0.17 | 44 | 1018.6 |
| 20260905154547 | 72 | 268 | 10.4 | 16.5 | 0.00 | 0.17 | 0.17 | 44 | 1018.7 |
| 20260905153522 | 73 | 267 | 9.6 | 18.2 | 0.00 | 0.17 | 0.17 | 45 | 1018.6 |
| 20260905152617 | 72 | 261 | 7.0 | 11.3 | 0.00 | 0.17 | 0.17 | 47 | 1018.6 |
| 20260905151552 | 72 | 250 | 10.4 | 22.6 | 0.00 | 0.17 | 0.17 | 47 | 1018.5 |
| 20260905150547 | 72 | 264 | 7.8 | 13.9 | 0.00 | 0.17 | 0.17 | 47 | 1018.4 |
| 20260905145522 | 72 | 256 | 7.8 | 14.8 | 0.00 | 0.17 | 0.17 | 47 | 1018.5 |
| 20260905144515 | 73 | 257 | 11.3 | 26.1 | 0.00 | 0.17 | 0.17 | 46 | 1018.6 |
| 20260905143531 | 73 | 256 | 13.9 | 26.1 | 0.00 | 0.17 | 0.17 | 46 | 1018.7 |
| 20260905142526 | 74 | 251 | 10.4 | 20.9 | 0.00 | 0.17 | 0.17 | 47 | 1018.6 |
| 20260905141520 | 74 | 237 | 10.4 | 16.5 | 0.00 | 0.17 | 0.17 | 47 | 1018.5 |
| 20260905140535 | 74 | 252 | 9.6 | 15.6 | 0.00 | 0.17 | 0.17 | 48 | 1018.5 |
| 20260905135550 | 73 | 240 | 11.3 | 22.6 | 0.00 | 0.17 | 0.17 | 48 | 1018.5 |
| 20260905134525 | 72 | 264 | 14.8 | 33.0 | 0.00 | 0.17 | 0.17 | 47 | 1018.5 |
| 20260905133519 | 73 | 258 | 9.6 | 21.7 | 0.00 | 0.17 | 0.17 | 47 | 1018.7 |
| 20260905132533 | 73 | 246 | 8.7 | 20.0 | 0.00 | 0.17 | 0.17 | 47 | 1018.7 |
| 20260905131549 | 72 | 247 | 10.4 | 19.1 | 0.00 | 0.17 | 0.17 | 50 | 1018.7 |
| 20260905130523 | 72 | 251 | 12.2 | 20.0 | 0.00 | 0.17 | 0.17 | 51 | 1018.8 |
| 20260905125538 | 72 | 250 | 11.3 | 19.1 | 0.00 | 0.17 | 0.17 | 51 | 1018.8 |
| 20260905124533 | 72 | 240 | 11.3 | 20.0 | 0.00 | 0.17 | 0.17 | 53 | 1018.7 |
| 20260905123528 | 72 | 237 | 8.7 | 19.1 | 0.00 | 0.17 | 0.17 | 53 | 1018.7 |
| 20260905122542 | 72 | 249 | 11.3 | 20.9 | 0.00 | 0.17 | 0.17 | 53 | 1018.9 |
| 20260905121516 | 70 | 246 | 6.1 | 16.5 | 0.00 | 0.17 | 0.17 | 59 | 1018.9 |
| 20260905120551 | 71 | 247 | 9.6 | 22.6 | 0.00 | 0.17 | 0.17 | 59 | 1019.1 |
| 20260905115526 | 71 | 253 | 7.8 | 12.2 | 0.00 | 0.17 | 0.17 | 60 | 1019.1 |
| 20260905114521 | 70 | 238 | 10.4 | 21.7 | 0.00 | 0.17 | 0.17 | 62 | 1019.3 |
| 20260905113535 | 69 | 242 | 7.0 | 15.6 | 0.00 | 0.17 | 0.17 | 63 | 1019.2 |
| 20260905112530 | 69 | 241 | 7.8 | 18.2 | 0.00 | 0.17 | 0.17 | 62 | 1019.3 |
| 20260905111545 | 68 | 252 | 8.7 | 14.8 | 0.00 | 0.17 | 0.17 | 63 | 1019.3 |
| 20260905110519 | 68 | 253 | 7.8 | 14.8 | 0.00 | 0.17 | 0.17 | 64 | 1019.4 |
| 20260905105534 | 68 | 252 | 7.0 | 13.9 | 0.00 | 0.17 | 0.17 | 64 | 1019.4 |
| 20260905104529 | 67 | 253 | 8.7 | 18.2 | 0.00 | 0.17 | 0.17 | 65 | 1019.5 |
| 20260905103523 | 68 | 253 | 11.3 | 20.9 | 0.00 | 0.17 | 0.17 | 65 | 1019.6 |
| 20260905102618 | 68 | 237 | 10.4 | 20.0 | 0.00 | 0.17 | 0.17 | 65 | 1019.5 |
| 20260905101532 | 68 | 251 | 8.7 | 31.3 | 0.00 | 0.17 | 0.17 | 66 | 1019.4 |
| 20260905100528 | 68 | 228 | 7.8 | 13.9 | 0.00 | 0.17 | 0.17 | 68 | 1019.4 |
| 20260905095521 | 67 | 249 | 8.7 | 15.6 | 0.00 | 0.17 | 0.17 | 67 | 1019.5 |
| 20260905094515 | 67 | 232 | 7.8 | 13.9 | 0.00 | 0.17 | 0.17 | 67 | 1019.6 |
| 20260905093531 | 68 | 242 | 7.0 | 12.2 | 0.00 | 0.17 | 0.17 | 68 | 1019.6 |
| 20260905092526 | 68 | 242 | 7.8 | 15.6 | 0.00 | 0.17 | 0.17 | 67 | 1019.6 |
| 20260905091521 | 67 | 232 | 7.0 | 12.2 | 0.00 | 0.17 | 0.17 | 71 | 1019.6 |
| 20260905090535 | 66 | 244 | 6.1 | 13.0 | 0.00 | 0.17 | 0.17 | 71 | 1019.6 |
| 20260905085529 | 66 | 237 | 7.0 | 11.3 | 0.00 | 0.17 | 0.17 | 74 | 1019.5 |
| 20260905084523 | 65 | 254 | 6.1 | 11.3 | 0.00 | 0.17 | 0.17 | 74 | 1019.4 |
| 20260905083538 | 65 | 236 | 6.1 | 12.2 | 0.00 | 0.17 | 0.17 | 74 | 1019.4 |
| 20260905082552 | 65 | 236 | 7.8 | 14.8 | 0.00 | 0.17 | 0.17 | 75 | 1019.5 |
| 20260905081527 | 63 | 248 | 7.0 | 13.0 | 0.00 | 0.17 | 0.17 | 78 | 1019.4 |
| 20260905080521 | 62 | 244 | 5.2 | 9.6 | 0.00 | 0.17 | 0.17 | 80 | 1019.4 |
| 20260905075516 | 62 | 246 | 6.1 | 11.3 | 0.00 | 0.17 | 0.17 | 79 | 1019.4 |
| 20260905074531 | 61 | 245 | 7.0 | 13.9 | 0.00 | 0.17 | 0.17 | 81 | 1019.3 |
| 20260905073526 | 61 | 252 | 7.0 | 14.8 | 0.00 | 0.17 | 0.17 | 79 | 1019.2 |
| 20260905072520 | 61 | 248 | 4.3 | 9.6 | 0.00 | 0.17 | 0.17 | 79 | 1019.0 |
| 20260905071534 | 61 | 249 | 3.5 | 7.8 | 0.00 | 0.17 | 0.17 | 80 | 1018.8 |
| 20260905070529 | 60 | 243 | 2.6 | 7.0 | 0.00 | 0.17 | 0.17 | 81 | 1019.0 |
| 20260905065523 | 59 | 222 | 1.7 | 5.2 | 0.00 | 0.17 | 0.17 | 83 | 1018.9 |
| 20260905064517 | 59 | 151 | 0.9 | 2.6 | 0.00 | 0.17 | 0.17 | 82 | 1018.9 |
| 20260905063532 | 59 | 110 | 2.6 | 3.5 | 0.00 | 0.17 | 0.17 | 84 | 1018.8 |
| 20260905062527 | 57 | 121 | 3.5 | 6.1 | 0.00 | 0.17 | 0.17 | 87 | 1019.0 |
| 20260905061521 | 55 | 124 | 4.3 | 6.1 | 0.00 | 0.17 | 0.17 | 88 | 1018.8 |
| 20260905060516 | 55 | 117 | 5.2 | 7.8 | 0.00 | 0.17 | 0.17 | 88 | 1018.7 |
| 20260905055531 | 55 | 113 | 6.1 | 9.6 | 0.00 | 0.17 | 0.17 | 89 | 1018.5 |
| 20260905054526 | 55 | 109 | 6.1 | 9.6 | 0.00 | 0.17 | 0.17 | 89 | 1018.4 |
| 20260905053521 | 55 | 116 | 6.1 | 12.2 | 0.00 | 0.17 | 0.17 | 89 | 1018.1 |
| 20260905052535 | 55 | 83 | 3.5 | 7.8 | 0.00 | 0.17 | 0.17 | 88 | 1017.9 |
| 20260905051530 | 55 | 315 | 1.7 | 6.1 | 0.00 | 0.17 | 0.17 | 88 | 1017.7 |
| 20260905050524 | 55 | 253 | 2.6 | 5.2 | 0.02 | 0.17 | 0.17 | 87 | 1017.4 |
| 20260905045520 | 56 | 205 | 2.6 | 6.1 | 0.03 | 0.17 | 0.17 | 88 | 1017.2 |
| 20260905044534 | 57 | 234 | 4.3 | 7.0 | 0.05 | 0.17 | 0.17 | 88 | 1017.3 |
| 20260905043549 | 57 | 229 | 4.3 | 11.3 | 0.06 | 0.17 | 0.17 | 89 | 1017.2 |
| 20260905042524 | 58 | 221 | 6.1 | 11.3 | 0.07 | 0.17 | 0.17 | 89 | 1016.7 |
| 20260905041519 | 58 | 199 | 5.2 | 12.2 | 0.10 | 0.17 | 0.17 | 90 | 1016.3 |
| 20260905040533 | 58 | 181 | 3.5 | 9.6 | 0.10 | 0.16 | 0.16 | 89 | 1016.3 |
| 20260905035528 | 59 | 197 | 0.9 | 2.6 | 0.09 | 0.14 | 0.14 | 88 | 1016.9 |
| 20260905034523 | 59 | 230 | 1.7 | 3.5 | 0.07 | 0.12 | 0.12 | 88 | 1017.2 |
| 20260905033537 | 59 | 254 | 4.3 | 8.7 | 0.07 | 0.11 | 0.11 | 88 | 1017.3 |
| 20260905032533 | 59 | 237 | 3.5 | 7.0 | 0.08 | 0.10 | 0.10 | 88 | 1017.4 |
| 20260905031527 | 59 | 203 | 0.9 | 1.7 | 0.06 | 0.07 | 0.07 | 87 | 1017.0 |
| 20260905030521 | 60 | 227 | 0.9 | 2.6 | 0.05 | 0.06 | 0.06 | 86 | 1017.2 |
| 20260905025515 | 60 | 222 | 1.7 | 2.6 | 0.05 | 0.06 | 0.06 | 85 | 1017.0 |
| 20260905024550 | 60 | 216 | 1.7 | 2.6 | 0.05 | 0.05 | 0.05 | 83 | 1016.9 |
| 20260905023525 | 61 | 310 | 0.0 | 0.9 | 0.04 | 0.04 | 0.04 | 83 | 1016.5 |
| 20260905022520 | 60 | 296 | 2.6 | 5.2 | 0.02 | 0.02 | 0.02 | 85 | 1017.0 |
| 20260905021534 | 61 | 194 | 2.6 | 3.5 | 0.01 | 0.01 | 0.01 | 83 | 1016.0 |
| 20260905020529 | 61 | 160 | 0.9 | 2.6 | 0.01 | 0.01 | 0.01 | 81 | 1015.4 |
| 20260905015523 | 62 | 111 | 0.9 | 0.9 | 0.00 | 0.00 | 0.00 | 78 | 1015.3 |
| 20260905014518 | 63 | 156 | 0.9 | 1.7 | 0.00 | 0.00 | 0.00 | 73 | 1015.3 |
| 20260905013552 | 64 | 250 | 1.7 | 3.5 | 0.00 | 0.00 | 0.00 | 70 | 1015.4 |
| 20260905012526 | 65 | 277 | 2.6 | 6.1 | 0.00 | 0.00 | 0.00 | 66 | 1015.1 |
| 20260905011520 | 65 | 292 | 5.2 | 11.3 | 0.00 | 0.00 | 0.00 | 65 | 1015.0 |
| 20260905010535 | 65 | 248 | 4.3 | 15.6 | 0.00 | 0.00 | 0.00 | 66 | 1014.9 |